Flag for Germany Weather past 2 weeks in Wittlich, Rhineland-Palatinate, Germany

Now
52 °F

Mostly cloudy.


Feels Like: 49 °F
Forecast: 44 / 57 °F
Wind: 7 mph from Southwest

Location: Spangdahlem

Current Time: Apr 26, 2015 at 7:28:24 AM

Latest Report: Apr 26, 2015 at 6:58 AM


Visibility: N/A

Pressure: 29.75 "Hg

Humidity: 100%

Dew point: 52 °F

Location of WittlichLocation

Historic Weather in Wittlich — Graph

°F

Wittlich temperature yesterday

Maximum temperature yesterday: 57 °F (at 1:03 PM)
Minimum temperature yesterday: 50 °F (at 6:01 AM)
Average temperature yesterday: 53 °F

Past Weeks' High & Low Weather Summary

 TemperatureHumidityPressure
High74 °F (Apr 15, 3:58 PM)100% (Apr 25, 11:03 AM)30.45 "Hg (Apr 25, 11:03 AM)
Low36 °F (Apr 18, 6:58 AM)24% (Apr 21, 4:58 PM)29.75 "Hg (Apr 26, 5:58 AM)
Average53 °F61%30.13 "Hg
* Reported Apr 11 5:58 AM — Apr 26 5:58 AM, Wittlich, Weather by CustomWeather, © 2015

Note: Actual official high and low records may vary slightly from our data, if they occured in-between our weather recording intervals... More about our weather records

Advertising

Wittlich weather history for previous 24 hours

 ConditionsComfort  
Time TempWeatherWind HumidityBarometerVisibility
5:58 AM
Sun, Apr 26
52 °FOvercast.10 mph100%29.75 "HgN/A
5:01 AM52 °FMostly cloudy.8 mph100%29.78 "HgN/A
3:58 AM52 °FMostly cloudy.8 mph100%29.75 "HgN/A
2:58 AM52 °FLow clouds.6 mph99%29.77 "HgN/A
1:58 AM52 °FMostly cloudy.8 mph100%29.78 "HgN/A
12:58 AM52 °FLight rain. Passing clouds.8 mph100%29.79 "HgN/A
11:58 PM
Sat, Apr 25
51 °FPassing clouds.8 mph95%29.79 "HgN/A
10:58 PM50 °FClear.6 mph94%29.80 "HgN/A
9:58 PM52 °FPassing clouds.6 mph94%29.80 "HgN/A
8:58 PM52 °FScattered clouds.5 mph94%29.78 "HgN/A
7:58 PM55 °FPartly sunny.8 mph88%29.77 "HgN/A
6:58 PM55 °FMore clouds than sun.9 mph89%29.77 "HgN/A
6:03 PM55 °FMore clouds than sun.12 mph88%29.80 "HgN/A
5:58 PM55 °FMostly cloudy.10 mph91%29.77 "HgN/A
4:58 PM54 °FLight rain. Cloudy.8 mph100%29.77 "HgN/A
3:58 PM57 °FPartly sunny.13 mph83%29.77 "HgN/A
2:58 PM55 °FBroken clouds.12 mph94%29.78 "HgN/A
2:00 PM55 °FLight rain. Mostly cloudy.10 mph88%29.81 "HgN/A
1:58 PM55 °FMostly cloudy.13 mph88%29.78 "HgN/A
1:03 PM57 °FBroken clouds.15 mph88%29.82 "HgN/A
12:58 PM55 °FBroken clouds.13 mph94%29.79 "HgN/A
12:00 PM55 °FBroken clouds.8 mph88%29.82 "HgN/A
11:58 AM54 °FPartly sunny.9 mph94%29.78 "HgN/A
11:03 AM52 °FLight rain. More clouds than sun.7 mph100%29.83 "HgN/A
9:58 AM52 °FLight rain. Fog.8 mph95%29.80 "Hg6 mi
8:59 AM52 °FLight rain. Passing clouds.5 mph88%29.82 "HgN/A
7:58 AM51 °FLight rain. Partly sunny.1 mph79%29.78 "HgN/A
Weather by CustomWeather, © 2015

See weather overviewHow to use our weather pages